Location: El Frío
(10.0713°N, 67.9111°W)
Time: 08:57:35
(UTC+00:00)

S3M - Pass Details

Date: 11 December 2025
Orbit: 947 x 1004 km, 83.0° (Epoch: 15 January)

Event Time Altitude Azimuth Distance (km) Brightness Sun altitude
Rises 23:04:27 0° 171° (S) 3,720 7.2 -12.9°
Reaches altitude 10° 23:07:04 10° 166° (SSE) 2,771 6.5 -13.5°
Maximum altitude 23:13:12 50° 92° (E) 1,260 4.2 -14.9°
Drops below altitude 10° 23:19:17 10° 19° (NNE) 2,761 6.0 -16.3°
Enters shadow 23:20:10 - 17° (NNE) 3,082 6.3 -16.5°
